Date String (YYYY-MM-DD hh:mm:ss) UTC,Instrument flags,absolute air pressure of the measurement (hPa),sample flow rate (lpm),inlet stack bypass flow (lpm),air temperature of the measurement (°C),ambient temperature measured by the external sensor (°C),aerosol sample conditioner tube jacket temperature (°C),OPC LED temperature (°C),internal box temperature (°C),relative humidity of the measurement (%),span deviation,mass concentration of particles derived from Lorenz-Mie calculation of OPC scattering (μg/m³),mass concentration of particles derived from Lorenz-Mie calculation of OPC scattering (μg/m³),mass concentration of particles derived from Lorenz-Mie calculation of OPC scattering (μg/m³)
DateTimeUTC,F1_M11,P_M11,Q1_M11,Q2_M11,T1_M11,T2_M11,T3_M11,T4_M11,T5_M11,U1_M11,ZSPAN_M11,X2_M11,X0_M11,X1_M11
2024-04-27 11:00:00,SystemResetWarning,0821.2,5.00,000.00,023.9,023.2,000.0,032.5,025.7,027.9,0000.0,0001.22,0002.34,0000.86
2024-04-27 11:01:00,SystemResetWarning,0821.2,5.01,000.00,023.9,023.2,000.0,032.5,025.7,027.9,0000.0,0001.20,0002.26,0000.86
2024-04-27 11:02:00,SystemResetWarning,0821.2,5.00,000.00,023.9,023.2,000.0,032.5,025.7,027.9,0000.0,0001.25,0002.65,0000.83
2024-04-27 11:03:00,SystemResetWarning,0821.2,5.00,000.00,023.9,023.2,000.0,032.5,025.7,028.3,0000.0,0001.26,0002.68,0000.82
2024-04-27 11:04:00,SystemResetWarning,0821.1,4.99,000.00,023.9,023.2,000.0,032.5,025.7,028.3,0000.0,0001.25,0002.65,0000.79
2024-04-27 11:05:00,SystemResetWarning,0821.1,4.99,000.00,023.9,023.2,000.0,032.5,025.7,028.2,0000.0,0001.22,0002.72,0000.77
2024-04-27 11:06:00,SystemResetWarning,0821.1,5.00,000.00,023.9,023.2,000.0,032.5,025.7,028.1,0000.0,0001.21,0002.97,0000.74
2024-04-27 11:07:00,SystemResetWarning,0821.2,5.02,000.00,023.9,023.2,000.0,032.5,025.7,028.1,0000.0,0001.22,0003.06,0000.72
2024-04-27 11:08:00,SystemResetWarning,0821.2,5.00,000.00,023.9,023.2,000.0,032.5,025.7,028.0,0000.0,0001.26,0003.17,0000.70
2024-04-27 11:09:00,SystemResetWarning,0821.1,4.98,000.00,023.9,023.2,000.0,032.5,025.7,028.0,0000.0,0001.23,0003.10,0000.68
2024-04-27 11:10:00,SystemResetWarning,0821.2,5.00,000.00,023.9,023.2,000.0,032.5,025.7,028.1,0000.0,0001.23,0003.17,0000.67
2024-04-27 11:11:00,SystemResetWarning,0821.1,5.00,000.00,023.9,023.2,000.0,032.5,025.7,028.1,0000.0,0001.23,0003.37,0000.65
2024-04-27 11:12:00,SystemResetWarning,0821.1,5.01,000.00,023.9,023.2,000.0,032.5,025.7,028.1,0000.0,0001.21,0003.33,0000.64
2024-04-27 11:13:00,SystemResetWarning,0821.1,5.01,000.00,023.9,023.1,000.0,032.5,025.7,028.1,0000.0,0001.12,0002.89,0000.62
2024-04-27 11:14:00,SystemResetWarning,0821.1,5.01,000.00,023.9,023.1,000.0,032.5,025.7,028.0,0000.0,0001.11,0002.97,0000.61
2024-04-27 11:15:00,SystemResetWarning,0821.2,4.99,000.00,023.9,023.1,000.0,032.5,025.7,028.1,0000.0,0001.04,0002.87,0000.59
2024-04-27 11:16:00,SystemResetWarning,0821.2,4.99,000.00,023.9,023.1,000.0,032.5,025.7,028.1,0000.0,0001.03,0002.86,0000.57
2024-04-27 11:17:00,SystemResetWarning,0821.1,5.01,000.00,023.9,023.1,000.0,032.5,025.7,028.1,0000.0,0001.01,0002.64,0000.56
2024-04-27 11:18:00,SystemResetWarning,0821.1,5.01,000.00,023.9,023.2,000.0,032.5,025.7,028.1,0000.0,0001.00,0002.25,0000.55
2024-04-27 11:19:00,SystemResetWarning,0821.1,5.01,000.00,023.9,023.2,000.0,032.5,025.7,028.1,0000.0,0000.97,0002.23,0000.54
2024-04-27 11:20:00,SystemResetWarning,0821.1,5.00,000.00,023.9,023.1,000.0,032.5,025.7,028.1,0000.0,0000.98,0002.46,0000.53
2024-04-27 11:21:00,SystemResetWarning,0821.1,5.00,000.00,023.9,023.1,000.0,032.5,025.7,028.1,0000.0,0001.00,0002.46,0000.53
2024-04-27 11:22:00,SystemResetWarning,0821.1,5.00,000.00,023.9,023.1,000.0,032.5,025.7,028.1,0000.0,0001.00,0002.30,0000.51
2024-04-27 11:23:00,SystemResetWarning,0821.1,5.00,000.00,023.9,023.1,000.0,032.5,025.7,028.1,0000.0,0000.99,0002.17,0000.50
2024-04-27 11:24:00,SystemResetWarning,0821.2,5.00,000.00,023.9,023.1,000.0,032.5,025.7,028.1,0000.0,0001.00,0002.26,0000.50
2024-04-27 11:25:00,SystemResetWarning,0821.1,4.99,000.00,023.9,023.1,000.0,032.5,025.6,028.1,0000.0,0000.95,0002.14,0000.49
2024-04-27 11:26:00,SystemResetWarning,0821.2,5.00,000.00,023.9,023.1,000.0,032.5,025.6,028.2,0000.0,0000.96,0002.50,0000.49
2024-04-27 11:27:00,SystemResetWarning,0821.1,5.01,000.00,023.9,023.1,000.0,032.4,025.7,028.2,0000.0,0000.94,0002.43,0000.49
2024-04-27 11:28:00,SystemResetWarning,0821.1,5.01,000.00,023.9,023.1,000.0,032.4,025.6,028.4,0000.0,0000.93,0002.40,0000.48
2024-04-27 11:29:00,SystemResetWarning,0821.1,5.00,000.00,023.9,023.1,000.0,032.4,025.6,028.7,0000.0,0000.88,0002.30,0000.47
2024-04-27 11:30:00,SystemResetWarning,0821.1,5.00,000.00,023.9,023.1,000.0,032.4,025.7,028.4,0000.0,0000.85,0002.17,0000.47
2024-04-27 11:31:00,SystemResetWarning,0821.1,5.00,000.00,023.9,023.1,000.0,032.4,025.7,028.3,0000.0,0000.82,0001.91,0000.46
2024-04-27 11:32:00,SystemResetWarning,0821.1,4.99,000.00,023.8,023.1,000.0,032.4,025.6,028.3,0000.0,0000.83,0002.04,0000.46
2024-04-27 11:33:00,SystemResetWarning,0821.1,5.00,000.00,023.8,023.1,000.0,032.4,025.6,028.3,0000.0,0000.81,0002.07,0000.45
2024-04-27 11:34:00,SystemResetWarning,0821.1,5.00,000.00,023.8,023.1,000.0,032.4,025.6,028.3,0000.0,0000.79,0002.04,0000.45
2024-04-27 11:35:00,SystemResetWarning,0821.1,5.00,000.00,023.8,023.1,000.0,032.4,025.6,028.3,0000.0,0000.81,0002.08,0000.45
2024-04-27 11:36:00,SystemResetWarning,0821.1,4.99,000.00,023.8,023.1,000.0,032.4,025.6,028.3,0000.0,0000.85,0002.15,0000.45
2024-04-27 11:37:00,SystemResetWarning,0821.1,4.99,000.00,023.8,023.1,000.0,032.4,025.6,028.3,0000.0,0000.89,0001.90,0000.46
2024-04-27 11:38:00,SystemResetWarning,0821.1,5.00,000.00,023.8,023.1,000.0,032.4,025.6,028.4,0000.0,0000.86,0001.78,0000.46
2024-04-27 11:39:00,SystemResetWarning,0821.1,5.01,000.00,023.8,023.1,000.0,032.4,025.6,028.4,0000.0,0000.86,0001.75,0000.46
2024-04-27 11:40:00,SystemResetWarning,0821.1,5.01,000.00,023.8,023.1,000.0,032.4,025.6,028.4,0000.0,0000.86,0001.75,0000.47
2024-04-27 11:41:00,SystemResetWarning,0821.1,5.00,000.00,023.8,023.1,000.0,032.4,025.6,028.4,0000.0,0000.89,0001.85,0000.48
2024-04-27 11:42:00,SystemResetWarning,0821.1,5.00,000.00,023.8,023.1,000.0,032.4,025.6,028.5,0000.0,0000.91,0001.92,0000.48
2024-04-27 11:43:00,SystemResetWarning,0821.4,5.00,000.00,023.8,023.0,000.0,032.4,025.5,028.5,0000.0,0000.87,0001.76,0000.48
2024-04-27 11:44:00,SystemResetWarning,0821.4,4.99,000.00,023.8,023.0,000.0,032.3,025.5,028.5,0000.0,0000.86,0001.67,0000.48
2024-04-27 11:45:00,SystemResetWarning,0821.4,5.00,000.00,023.8,023.0,000.0,032.3,025.5,028.6,0000.0,0000.83,0001.58,0000.48
2024-04-27 11:46:00,SystemResetWarning,0821.5,5.01,000.00,023.8,023.0,000.0,032.3,025.5,028.5,0000.0,0000.81,0001.47,0000.49
2024-04-27 11:47:00,SystemResetWarning,0821.2,5.00,000.00,023.8,023.0,000.0,032.3,025.5,028.5,0000.0,0000.79,0001.39,0000.50
2024-04-27 11:48:00,SystemResetWarning,0821.1,5.00,000.00,023.7,023.0,000.0,032.3,025.5,028.5,0000.0,0000.75,0001.29,0000.50
2024-04-27 11:49:00,SystemResetWarning,0821.3,5.00,000.00,023.7,022.9,000.0,032.3,025.5,028.6,0000.0,0000.77,0001.37,0000.51
2024-04-27 11:50:00,SystemResetWarning,0821.4,5.01,000.00,023.7,022.9,000.0,032.3,025.5,028.6,0000.0,0000.76,0001.39,0000.51
2024-04-27 11:51:00,SystemResetWarning,0821.2,5.01,000.00,023.7,022.9,000.0,032.3,025.5,028.5,0000.0,0000.79,0001.66,0000.51
2024-04-27 11:52:00,SystemResetWarning,0821.4,5.00,000.00,023.7,022.9,000.0,032.3,025.5,028.5,0000.0,0000.80,0001.79,0000.51
2024-04-27 11:53:00,SystemResetWarning,0821.0,5.00,000.00,023.7,022.9,000.0,032.3,025.4,028.4,0000.0,0000.80,0001.82,0000.52
2024-04-27 11:54:00,SystemResetWarning,0821.0,5.00,000.00,023.7,022.8,000.0,032.2,025.4,028.4,0000.0,0000.81,0001.81,0000.52
2024-04-27 11:55:00,SystemResetWarning,0821.1,5.00,000.00,023.7,022.8,000.0,032.2,025.4,028.4,0000.0,0000.82,0001.82,0000.53
2024-04-27 11:56:00,SystemResetWarning,0821.0,5.00,000.00,023.6,022.8,000.0,032.2,025.4,028.4,0000.0,0000.84,0001.89,0000.54
2024-04-27 11:57:00,SystemResetWarning,0821.1,4.99,000.00,023.6,022.8,000.0,032.2,025.4,028.2,0000.0,0000.82,0001.85,0000.53
2024-04-27 11:58:00,SystemResetWarning,0821.2,5.00,000.00,023.6,022.8,000.0,032.2,025.4,028.1,0000.0,0000.82,0001.83,0000.54
2024-04-27 11:59:00,SystemResetWarning,0821.1,5.00,000.00,023.6,022.8,000.0,032.2,025.4,028.0,0000.0,0000.82,0001.84,0000.55
